Location: Cucq
(50.4773°N, 1.6202°E)
Time: 16:33:27
(UTC+00:00)

Uosat 12 SS-18 rocket - Pass Details

Date: 07 August 2020
Orbit: 602 x 1382 km, 64.6° (Epoch: 18 September)

Event Time Altitude Azimuth Distance (km) Brightness Sun altitude
Exits shadow 02:33:33 23° 239° (WSW) 1,493 5.5 -15.1°
Maximum altitude 02:36:32 62° 315° (NW) 746 4.4 -14.8°
Drops below altitude 10° 02:40:55 10° 37° (NE) 1,990 8.1 -14.4°
Sets 02:43:07 0° 41° (NE) 2,872 9.5 -14.2°
